#timestamp,LO_Frequency,Hit 
1503586815.1,286046996.2,N
1503586816.0,286046996.2,N
1503586835.8,286046996.1,N
1503586855.6,286046993.3,N
1503586875.4,286046993.8,N
1503586895.3,286046993.4,N
1503586915.1,286046994.4,N
1503586935.8,286046992.2,N
1503586955.7,286046994.8,N
1503586975.5,286046994.0,N
1503586995.3,286046994.8,N
1503587015.2,286046991.9,N
1503587035.9,286046991.8,N
1503587055.7,286046995.7,N
1503587075.6,286046995.3,N
1503587095.4,286046995.7,N
1503587115.2,286046993.5,N
1503587135.0,286046990.6,N
1503587136.0,286046990.6,N
1503587155.8,286046993.1,N
1503587175.6,286046990.9,P
1503587195.5,286046994.2,N
1503587215.3,286046991.8,P
1503587235.1,286046996.2,N
1503587255.9,286046993.3,P
1503587275.7,286046998.5,P
1503587295.5,286046999.8,N
1503587315.4,286046999.8,N
1503587335.2,286047002.7,N
1503587355.0,286046998.8,N
1503587355.9,286046998.8,N
1503587375.8,286046997.5,N
1503587395.6,286046993.3,N
1503587415.4,286046995.2,N
1503587435.2,286046997.2,N
1503587455.1,286046996.7,N
1503587456.0,286046996.7,N
1503587475.8,286046999.0,N
1503587495.6,286046998.9,N
1503587515.5,286046996.7,N
1503587535.3,286046997.4,N
1503587555.1,286046997.7,N
1503587575.9,286046996.4,N
1503587595.7,286046993.5,N
1503587615.5,286046995.8,N
1503587635.4,286046994.9,N
1503587655.2,286046993.3,N
1503587675.0,286046994.1,N
1503587675.9,286046994.1,N
1503587695.8,286046994.1,N
1503587715.6,286046995.9,N
1503587735.4,286046992.3,P
1503587755.3,286046998.8,N
1503587775.1,286047000.3,N
1503587776.0,286047000.3,N
1503587795.8,286046999.5,N
1503587815.7,286046998.0,N
1503587835.5,286046995.9,N
1503587855.3,286046995.1,N
1503587875.1,286046994.0,N
1503587895.9,286046994.1,N
1503587915.7,286046992.3,N
1503587935.5,286046992.1,N
1503587955.4,286046993.2,N
1503587975.2,286046996.0,N
1503587995.0,286046993.3,N
1503587995.9,286046993.3,N
1503588015.8,286046996.4,N
1503588035.6,286046997.6,N
1503588055.4,286046993.8,N
1503588075.3,286046994.5,N
1503588095.1,286046991.8,P
1503588115.8,286046997.1,N
1503588135.7,286046999.3,N
1503588155.5,286047002.1,N
1503588175.3,286047004.1,N
1503588195.2,286047001.7,N
1503588215.9,286047003.1,N
1503588235.7,286047001.3,N
1503588255.6,286047002.1,N
1503588275.4,286047001.8,N
1503588295.2,286047001.8,N
1503588315.0,286047003.8,N
1503588315.9,286047003.8,N
1503588335.8,286047003.9,N
1503588355.6,286047003.6,N
1503588375.4,286047001.8,N
1503588395.3,286047004.1,N
1503588415.1,286047005.1,N
1503588435.8,286047005.5,N
1503588455.7,286047001.6,N
1503588475.5,286047001.9,N
1503588495.3,286047001.0,N
1503588515.2,286047002.5,N
1503588535.9,286047002.6,N
1503588555.7,286047000.2,N
1503588575.5,286047002.3,N
1503588595.4,286047000.6,N
1503588615.2,286046999.0,N
1503588635.0,286046999.2,N
1503588635.9,286046999.2,N
1503588655.8,286046999.0,N
1503588675.6,286046996.8,N
1503588695.4,286046995.7,N
1503588715.3,286046995.0,N
1503588735.1,286046996.0,N
1503588755.8,286046997.9,N
1503588775.7,286046996.9,N
1503588795.5,286046997.8,N
1503588815.3,286046995.0,N
1503588835.2,286046995.6,N
1503588855.9,286046996.1,N
1503588875.7,286046998.4,N
1503588895.6,286046998.6,N
1503588915.4,286047000.5,N
1503588935.2,286047002.7,N
1503588955.0,286046998.1,N
1503588955.9,286046998.1,N
1503588975.8,286046996.1,N
1503588995.6,286046995.8,N
1503589015.4,286046995.6,N
1503589035.3,286046995.6,N
1503589055.1,286046996.3,N
1503589075.8,286046995.8,N
1503589095.7,286046994.4,N
1503589115.5,286046992.0,P
1503589135.3,286046995.9,N
1503589155.2,286046995.6,N
1503589175.9,286046995.5,N
1503589195.7,286046995.2,N
1503589215.6,286046995.7,N
1503589235.4,286046993.4,P
1503589255.2,286047001.1,N
1503589275.1,286046997.4,N
1503589276.0,286046997.4,N
1503589295.8,286046998.3,N
1503589315.6,286046999.5,N
1503589335.5,286046999.2,N
1503589355.3,286046998.7,N
1503589375.1,286046997.1,N
1503589395.9,286046995.4,N
1503589415.7,286046994.9,N
1503589435.5,286046997.0,N
1503589455.3,286046999.0,N
1503589475.2,286046997.2,N
1503589495.9,286047000.9,N
1503589515.7,286047004.4,N
1503589535.6,286046999.8,N
1503589555.4,286047000.5,N
1503589575.2,286046999.4,N
1503589595.1,286046998.9,N
1503589596.0,286046998.9,N
1503589615.8,286046999.9,N
1503589635.6,286046996.8,N
1503589655.5,286046995.5,N
1503589675.3,286046995.1,N
1503589695.1,286046995.6,N
1503589715.8,286046997.7,N
1503589735.7,286046995.1,N
1503589755.5,286046999.3,N
1503589775.3,286047000.3,N
1503589795.2,286047000.6,N
1503589815.9,286046997.9,N
1503589835.7,286046993.4,P
1503589855.6,286046995.0,N
1503589875.4,286046996.7,N
1503589895.2,286046999.2,N
1503589915.1,286047001.1,N
1503589916.0,286047001.1,N
1503589935.8,286046997.0,N
1503589955.6,286046997.8,N
1503589975.5,286046995.0,N
1503589995.3,286046997.2,N
1503590015.1,286046997.4,N
1503590035.9,286046997.8,N
1503590055.7,286046997.1,N
1503590075.5,286046997.6,N
1503590095.4,286046997.4,N
1503590115.2,286046996.9,N
1503590135.0,286046999.4,N
1503590135.9,286046999.4,N
1503590155.7,286046998.5,N
1503590175.6,286046997.2,N
1503590195.4,286046995.2,N
1503590215.2,286046995.8,N
1503590235.1,286046996.0,N
1503590236.0,286046996.0,N
1503590255.8,286046995.9,N
1503590275.6,286046996.4,N
1503590295.5,286046995.4,N
1503590315.3,286046995.6,N
1503590335.1,286046997.3,N
1503590355.9,286046997.4,N
1503590375.7,286046995.7,N
1503590395.5,286046997.9,N
